This is the latest recevied weather packets stored in our database for station/object JO1YDG-13. If no packets are shown the sender has not sent any weather packets the latest 10 day(s).
| Time | Temp. | Humidity | Pressure | Rain* | Wind** | Luminosity | Snow |
|---|---|---|---|---|---|---|---|
| 1777669955 | 18.33° C | 41% | 973.6 hPa | 0 mm | - | - | - |
| 1777669655 | 17.78° C | 45% | 973.6 hPa | 0 mm | - | - | - |
| 1777669355 | 17.22° C | 47% | 973.6 hPa | 0 mm | - | - | - |
| 1777669055 | 17.78° C | 45% | 973.6 hPa | 0 mm | - | - | - |
| 1777667856 | 17.22° C | 45% | 973.4 hPa | 0 mm | - | - | - |
| 1777667556 | 17.22° C | 46% | 973.4 hPa | 0 mm | - | - | - |
| 1777667256 | 16.67° C | 46% | 973.4 hPa | 0 mm | - | - | - |
| 1777666956 | 16.11° C | 49% | 972.9 hPa | 0 mm | - | - | - |
| 1777666055 | 15.56° C | 51% | 972.7 hPa | 0 mm | - | - | - |
| 1777665755 | 16.11° C | 51% | 972.1 hPa | 0 mm | - | - | - |
| 1777665455 | 16.11° C | 51% | 972.1 hPa | 0 mm | - | - | - |
| 1777665157 | 16.11° C | 52% | 972.1 hPa | 0 mm | - | - | - |
| 1777664256 | 15° C | 55% | 971.8 hPa | 0 mm | - | - | - |
| 1777663955 | 14.44° C | 56% | 971.8 hPa | 0 mm | - | - | - |
| 1777663657 | 13.33° C | 62% | 971.8 hPa | 0 mm | - | - | - |
| 1777662456 | 10.56° C | 86% | 971.6 hPa | 0 mm | - | - | - |
| 1777661856 | 8.89° C | 95% | 971 hPa | 0 mm | - | - | - |
| 1777660655 | 9.44° C | 93% | 971.2 hPa | 0 mm | - | - | - |
| 1777660355 | 8.89° C | 94% | 971.2 hPa | 0 mm | - | - | - |
| 1777660057 | 8.89° C | 95% | 971.2 hPa | 0 mm | - | - | - |
| 1777659756 | 9.44° C | 95% | 970.4 hPa | 0 mm | - | - | - |
| 1777659456 | 8.89° C | 98% | 970.4 hPa | 0 mm | - | - | - |
| 1777659156 | 8.89° C | 98% | 970.3 hPa | 0 mm | - | - | - |
| 1777658856 | 8.89° C | 98% | 970.3 hPa | 0 mm | - | - | - |
| 1777658256 | 8.89° C | 98% | 969.9 hPa | 0 mm | - | - | - |
* Rain latest hour (hover to see other rain measurements)
** Current wind speed in m/s (hover to see current wind gust speed)